星链-35810(STARLINK-35810)

导读 | 豆包AI

STARLINK-35810是美国SpaceX公司星链星座的一颗卫星,于2025年11月21日发射,属于星链互联网卫星组网项目的组成部分。星链项目旨在构建全球卫星互联网星座,为全球偏远、无网络覆盖地区提供低成本高速宽带服务,该卫星入轨后将进一步扩充星链星座的服务容量与覆盖范围。

基本信息
目录编号:
66575
目录名称:
STARLINK-35810
国际标识:
2025-268U
轨道中心:
EARTH
卫星名称:
星链-35810
卫星全名:
星链-35810(STARLINK-35810)
卫星状态:
在轨 (已飞行159 天)
发射日期:
2025-11-21 UTC
国别 :
美国 (US)
星等 :
--
轨道信息
数据来源 国际轨道数据
星历时间: 2026-04-29T05:04:20+0800
6小时前
查看轨道信息
半长轴: 6861.184km
偏心率: 0.0000961
轨道倾角: 43.000°
近地点辐角 260.038°
升交点赤经 63.778°
平近点角 100.036°
近地点: 482.387km
远地点: 483.707km
周期: 94.267分钟
每日圈数: 15.275808
详细信息
固有亮度:
5
最大亮度:
2.5
卫星平台:
Starlink V1.0
覆盖范围:
全球
运营商:
太空探索技术公司
运营商所在国:
美国
制造商(研发单位):
太空探索技术公司
制造商所在国:
美国
使用方式:
暂无
卫星简介
Starlink 计划是 SpaceX 推出的全球卫星互联网项目,通过发射低轨道卫星,为全球尤其是偏远地区提供高速、低延迟的互联网服务。自 2019 年起,Starlink 已部署数千颗卫星,旨在缩小全球数字鸿沟,推动互联网普及。该项目还为军事、航空等行业提供通信支持,带来广泛经济效益。
2D轨道图
3D轨道图
轨道高度分析图
轨道倾角分析图
轨道综合分析图
查看轨道综合分析图